Regional Weather Roundup
Issued by NWS Jackson, KY

Home | Current Version | Previous Version | Graphics & Text | Print | Product List | Glossary On
Versions: 1 2 3 4 5 6 7 8 9 10 11 12 13 14 15 16 17 18 19 20 21 22 23 24 25 26 27
000
ASUS43 KJKL 270410
RWRJKL

EAST KENTUCKY HOURLY WEATHER ROUNDUP
NATIONAL WEATHER SERVICE JACKSON KY
1200 AM EDT THU APR 27 2017

NOTE: "FAIR" INDICATES FEW OR NO CLOUDS BELOW 12,000 FEET WITH
NO SIGNIFICANT WEATHER AND/OR OBSTRUCTIONS TO VISIBILITY.

* THESE REPORTS ARE NOT UNDER NWS QUALITY CONTROL AND MAY NOT
  REPORT WEATHER SUCH AS PRECIPITATION AND FOG.

KYZ079-080-083-085-087-088-110-112-115-119-120-270500
...EASTERN KENTUCKY...

CITY           SKY/WX    TMP DP  RH WIND       PRES   REMARKS
JACKSON        CLEAR     70  49  47 CALM      29.67F
LONDON         CLEAR     71  56  58 S7        29.68S
SOMERSET*      CLOUDY    70  54  56 S5        29.68R
MONTICELLO*    CLOUDY    74  57  55 S15G36    29.66S
WILLIAMSBURG*  CLEAR     68  59  73 SE6       29.69R
MIDDLESBORO*   CLEAR     72  58  62 S9G16     29.72S
HARLAN APT*    CLEAR     63  54  72 CALM      29.72F
PIKE CO APT*     N/A     71  51  48 S6        29.70S
BIG SANDY APT* CLEAR     75  49  40 S9        29.68F
MOREHEAD APT*  CLEAR     72  50  46 S7        29.65F
$$

KYZ035-036-041-042-044-050-067-078-099-270500
...CENTRAL KENTUCKY...

CITY           SKY/WX    TMP DP  RH WIND       PRES   REMARKS
MT STERLING*   CLEAR     72  54  53 S9        29.65S
FLEMING/MASON* CLEAR     70  51  51 S8        29.63S
DANVILLE*      CLOUDY    68  54  60 S8        29.63S
LEXINGTON      CLOUDY    71  53  52 S12       29.62S
FRANKFORT      CLEAR     71  53  52 S9        29.59R
LOUISVILLE     MOCLDY    74  57  55 S13       29.56S
LEBANON*         N/A     73  55  53 S12G18    29.61S
GLASGOW*       PTCLDY    69  56  64 S3        29.60F
BOWLING GREEN  PTCLDY    74  59  59 S20G25    29.59S
$$

KYZ091>093-OHZ055-061-077-WVZ005-015-034-035-042-270500
...SOUTHERN OHIO/WEST VIRGINIA...

CITY           SKY/WX    TMP DP  RH WIND       PRES   REMARKS
COVINGTON      CLOUDY    67  53  61 S9        29.57F
COLUMBUS       CLOUDY    73  53  49 SE9       29.61F
DAYTON         CLOUDY    69  49  48 SE9       29.57F
WILMINGTON     CLOUDY    64  53  67 SE6       29.60F
HUNTINGTON     CLEAR     65  55  70 SE5       29.65S
CHARLESTON     CLEAR     63  55  75 CALM      29.68S
PINEVILLE*     CLEAR     61  57  88 MISG      29.81S
BECKLEY        CLEAR     66  57  72 SE9       29.80F
BLUEFIELD      CLEAR     65  54  67 VRB7      29.84S
LOGAN CO APT*    N/A     73  55  53 S8G15     29.72S
$$

VAZ002-007-008-TNZ017-027-036-066-071-270500
...SOUTHWEST VIRGINIA/EAST TENNESSEE...

CITY           SKY/WX    TMP DP  RH WIND       PRES   REMARKS
WISE*          CLEAR     68  52  56 S12G17    29.80S
JONESVILLE*      N/A     59  55  88 CALM      29.76S
ABINGDON*      CLEAR     68  55  62 SE5       29.80F
BRISTOL        CLEAR     69  55  60 S5        29.78R
MORRISTOWN*    CLEAR     63  59  88 SE5       29.73S
SEVIERVILLE*   CLEAR     63  59  88 CALM      29.72F
KNOXVILLE      PTCLDY    73  53  49 S20       29.73R
LAFOLLETTE*    CLEAR     73  55  53 SW16G29   29.74R
OAK RIDGE      CLEAR     73  55  53 VRB3      29.75R
CROSSVILLE     CLEAR     69  56  62 S8G22     29.74R
NASHVILLE      MOCLDY    74  58  57 S17G31    29.61R
$$

...KEY TO REMARKS...
VSB - VISIBILITY IN MILES
WCI - WIND CHILL INDEX
HX  - HEAT INDEX

$$




USA.gov is the U.S. government's official web portal to all federal, state and local government web resources and services.